Weather History for PANC - January, 2014

Change the Weather History Date:

Thursday, January 9, 2014

  Actual Average Record
Temperature  
Mean Temperature 28 °F 17 °F  
Max Temperature 30 °F 23 °F 45 °F (1955)
Min Temperature 25 °F 11 °F -23 °F (1972)
Degree Days  
Heating Degree Days 37    
Month to date heating degree days 334  
Since 1 July heating degree days 4693  
Cooling Degree Days 0    
Month to date cooling degree days 0  
Year to date cooling degree days 0  
Moisture  
Dew Point 27 °F    
Average Humidity 96    
Maximum Humidity 100    
Minimum Humidity 92    
Precipitation  
Precipitation T in 0.02 in 0.29 in (1966)
Month to date precipitation 0.16 0.23  
Year to date precipitation 0.16 0.23  
Snow  
Snow 0.20 in 0.30 in 4.60 in (1966)
Month to date snowfall 1.8 3.5  
Since 1 July snowfall 36.1 41.6  
Snow Depth 14.00 in    
Sea Level Pressure  
Sea Level Pressure 29.27 in    
Wind  
Wind Speed 2 mph (South)    
Max Wind Speed 6 mph    
Max Gust Speed -    
Visibility 6 miles    
Events Fog , Snow    
T = Trace of Precipitation, MM = Missing Value Source: NWS Daily Summary

Daily Weather History Graph

Daily Weather History Graph

Search for Another Location

Airport or City:

Trip Planner

Search our weather history database for the weather conditions in past years. The results will help you decide how hot, cold, wet, or windy it might be!

Date:

Astronomy

Jan. 09, 2014 Rise Set
Actual Time 10:05 AM AKST 4:09 PM AKST
Civil Twilight 9:07 AM AKST 5:07 PM AKST
Nautical Twilight 8:10 AM AKST 6:05 PM AKST
Astronomical Twilight 7:17 AM AKST 6:57 PM AKST
Moon 12:23 PM AKST (1/9) 3:37 AM AKST (1/9)
Length of Visible Light 7h 59m
Length of Day
6h 03m
Waxing Gibbous, 67% of the Moon is Illuminated
Jan 9
Waxing Gibbous
Jan 15
Full
Jan 23
Last Quarter
Jan 30
New
Feb 6
First Quarter

Hourly Weather History & Observations

Time (AKST) Temp. Windchill Dew Point Humidity Pressure Visibility Wind Dir Wind Speed Gust Speed Precip Events Conditions
12:53 AM 28.0 °F 21.7 °F 26.1 °F 92% 29.23 in 10.0 mi South 5.8 mph - N/A   Overcast
1:14 AM 28.4 °F 23.3 °F 26.6 °F 93% 29.22 in 10.0 mi South 4.6 mph - N/A   Overcast
1:53 AM 28.0 °F 22.8 °F 27.0 °F 96% 29.23 in 10.0 mi South 4.6 mph - N/A   Overcast
2:53 AM 28.9 °F 25.2 °F 27.0 °F 92% 29.22 in 2.5 mi South 3.5 mph - 0.00 in Snow Light Snow
2:58 AM 28.4 °F 24.6 °F 26.6 °F 93% 29.21 in 3.0 mi SSE 3.5 mph - 0.00 in Snow Light Snow
3:42 AM 28.4 °F 24.6 °F 26.6 °F 93% 29.22 in 10.0 mi South 3.5 mph - 0.00 in   Overcast
3:53 AM 28.0 °F - 27.0 °F 96% 29.23 in 10.0 mi Calm Calm - 0.00 in Snow Light Snow
4:43 AM 28.4 °F - 26.6 °F 93% 29.22 in 10.0 mi Calm Calm - 0.00 in   Overcast
4:53 AM 28.9 °F - 27.0 °F 92% 29.23 in 6.0 mi Calm Calm - 0.00 in   Overcast
5:41 AM 28.4 °F - 26.6 °F 93% 29.22 in 4.0 mi Calm Calm - 0.00 in   Overcast
5:53 AM 28.9 °F - 27.0 °F 92% 29.22 in 4.0 mi Calm Calm - 0.00 in   Overcast
6:04 AM 28.4 °F - 26.6 °F 93% 29.21 in 4.0 mi Calm Calm - N/A   Overcast
6:53 AM 28.9 °F 25.2 °F 27.0 °F 92% 29.22 in 6.0 mi SSE 3.5 mph - 0.00 in Snow Light Snow
7:53 AM 28.9 °F 23.9 °F 27.0 °F 92% 29.22 in 6.0 mi SSE 4.6 mph - 0.00 in Snow Light Snow
8:53 AM 28.9 °F 23.9 °F 27.0 °F 92% 29.24 in 6.0 mi South 4.6 mph - 0.00 in Snow Light Snow
9:12 AM 30.2 °F - 26.6 °F 86% 29.23 in 7.0 mi Calm Calm - 0.00 in   Overcast
9:49 AM 28.4 °F - 28.4 °F 100% 29.24 in 6.0 mi Calm Calm - 0.00 in   Light Freezing Drizzle
9:53 AM 28.9 °F - 28.0 °F 96% 29.25 in 6.0 mi Calm Calm - 0.00 in   Light Freezing Drizzle
9:57 AM 30.2 °F - 28.4 °F 93% 29.24 in 2.0 mi Calm Calm - 0.00 in   Light Freezing Drizzle
10:08 AM 28.4 °F 23.3 °F 28.4 °F 100% 29.24 in 0.5 mi South 4.6 mph - 0.00 in Fog Light Freezing Fog
10:28 AM 30.2 °F 25.4 °F 28.4 °F 93% 29.24 in 3.0 mi SW 4.6 mph - 0.00 in   Overcast
10:53 AM 30.0 °F - 28.0 °F 92% 29.25 in 10.0 mi Calm Calm - 0.00 in Fog Overcast
11:37 AM 30.2 °F - 28.4 °F 93% 29.25 in 10.0 mi Calm Calm - N/A Fog Mostly Cloudy
11:53 AM 30.9 °F 27.5 °F 28.0 °F 89% 29.26 in 10.0 mi Variable 3.5 mph - N/A Fog Patches of Fog
12:25 PM 30.2 °F 26.7 °F 28.4 °F 93% 29.27 in 5.0 mi North 3.5 mph - N/A   Overcast
12:53 PM 30.0 °F - 28.9 °F 96% 29.28 in 5.0 mi Calm Calm - N/A   Overcast
2:53 PM 28.9 °F - 28.0 °F 96% 29.28 in 10.0 mi Calm Calm - N/A Fog Patches of Fog
3:53 PM 30.0 °F - 28.9 °F 96% 29.29 in 4.0 mi Calm Calm - N/A   Overcast
4:53 PM 28.9 °F - 28.0 °F 96% 29.30 in 4.0 mi Calm Calm - N/A   Overcast
5:53 PM 30.0 °F - 28.0 °F 92% 29.31 in 4.0 mi Calm Calm - N/A   Overcast
6:30 PM 30.2 °F - 28.4 °F 93% 29.30 in 2.0 mi Calm Calm - N/A   Overcast
6:53 PM 28.9 °F - 28.0 °F 96% 29.31 in 1.0 mi Calm Calm - N/A   Overcast
7:53 PM 28.9 °F - 28.0 °F 96% 29.32 in 3.0 mi Calm Calm - N/A   Overcast
8:15 PM 28.4 °F - 28.4 °F 100% 29.31 in 4.0 mi Calm Calm - N/A   Overcast
8:53 PM 28.9 °F - 27.0 °F 92% 29.33 in 5.0 mi Calm Calm - N/A   Overcast
9:00 PM 28.4 °F - 26.6 °F 93% 29.33 in 5.0 mi Calm Calm - N/A   Overcast
9:53 PM 28.9 °F - 27.0 °F 92% 29.35 in 10.0 mi Calm Calm - N/A   Overcast
10:53 PM 28.9 °F 25.2 °F 27.0 °F 92% 29.37 in 10.0 mi NW 3.5 mph - N/A Fog Patches of Fog
11:29 PM 28.4 °F 24.6 °F 26.6 °F 93% 29.37 in 10.0 mi NW 3.5 mph - 0.00 in Fog , Snow Light Snow
11:53 PM 28.0 °F 24.2 °F 27.0 °F 96% 29.38 in 10.0 mi NNW 3.5 mph - 0.00 in Fog , Snow Light Snow